Satellite-Ground Cal/Val Site Overpasses Predictions

Prediction of Satellite NPP Overpassing Cal/Val Site: Antarctic Dome C

Ground Cal/Val Site Location: Latitude: -75.10, Longitude: 123.35; Satellite-Ground Site NADIR distance within 100 km.

Table of predicted overpasses for the next 14.0 days since TLE Epoch: 10/3/2016
Interval Starting Time Ending Time Minimum Distance Time Minimum Distance (km)
1 10/03/2016 15:08:10 10/03/2016 15:08:20 10/03/2016 15:08:15 92.77
2 10/04/2016 14:49:11 10/04/2016 14:49:40 10/04/2016 14:49:26 18.44
3 10/06/2016 07:32:01 10/06/2016 07:32:30 10/06/2016 07:32:16 2.54
4 10/09/2016 14:55:30 10/09/2016 14:55:59 10/09/2016 14:55:44 18.56
5 10/10/2016 14:36:48 10/10/2016 14:37:01 10/10/2016 14:36:55 88.33
6 10/11/2016 07:38:21 10/11/2016 07:38:48 10/11/2016 07:38:34 38.13
7 10/12/2016 07:19:34 10/12/2016 07:19:54 10/12/2016 07:19:44 71.80
8 10/14/2016 15:01:50 10/14/2016 15:02:14 10/14/2016 15:02:02 56.14
9 10/15/2016 14:43:00 10/15/2016 14:43:25 10/15/2016 14:43:13 53.01


NCC Satellite Cal/Val Overpasses Prediction Service
